Time,TemperatureF,DewpointF,PressureIn,WindDirection,WindDirectionDegrees,WindSpeedMPH,WindSpeedGustMPH,Humidity,HourlyPrecipIn,Conditions,Clouds,dailyrainin,SoftwareType,DateUTC
2013-02-26 07:43:00,28.2,17.6,29.41,NNW,338,0.0,0.0,64,0.00,CLR,,0.00,WeatherDisplay:10.37,2013-02-26 16:43:00,
2013-02-26 07:48:00,27.9,17.3,29.41,NNW,338,0.0,0.0,64,0.00,CLR,,0.00,WeatherDisplay:10.37,2013-02-26 16:48:00,
2013-02-26 07:53:00,27.7,17.4,29.41,NNW,338,0.0,0.0,65,0.00,CLR,,0.00,WeatherDisplay:10.37,2013-02-26 16:53:00,
2013-02-26 07:58:00,27.5,17.3,29.41,NNW,338,0.0,0.0,65,0.00,CLR,,0.00,WeatherDisplay:10.37,2013-02-26 16:58:00,
2013-02-26 08:03:00,27.5,17.6,29.41,NNW,338,0.0,0.0,66,0.00,CLR,,0.00,WeatherDisplay:10.37,2013-02-26 17:03:00,
2013-02-26 08:08:00,27.1,17.3,29.41,NNW,338,0.0,0.0,66,0.00,CLR,,0.00,WeatherDisplay:10.37,2013-02-26 17:08:00,
2013-02-26 08:13:00,27.1,17.3,29.41,NNW,338,0.0,0.0,66,0.00,CLR,,0.00,WeatherDisplay:10.37,2013-02-26 17:13:00,
2013-02-26 08:18:00,27.0,17.5,29.41,NNW,338,0.0,0.0,67,0.00,CLR,,0.00,WeatherDisplay:10.37,2013-02-26 17:18:00,
2013-02-26 08:23:00,27.0,17.5,29.38,NNW,338,0.0,0.0,67,0.00,CLR,,0.00,WeatherDisplay:10.37,2013-02-26 17:23:00,
2013-02-26 08:28:00,27.3,18.1,29.38,NNW,338,0.0,0.0,68,0.00,CLR,,0.00,WeatherDisplay:10.37,2013-02-26 17:28:00,
2013-02-26 08:33:00,27.3,18.1,29.38,NNW,338,0.0,0.0,68,0.00,CLR,,0.00,WeatherDisplay:10.37,2013-02-26 17:33:00,
2013-02-26 08:38:00,27.3,18.1,29.38,NNW,338,0.0,0.0,68,0.00,CLR,,0.00,WeatherDisplay:10.37,2013-02-26 17:38:00,
2013-02-26 08:43:00,27.3,18.1,29.38,NNW,338,0.0,0.0,68,0.00,CLR,,0.00,WeatherDisplay:10.37,2013-02-26 17:43:00,
2013-02-26 08:48:00,27.3,18.1,29.38,NNW,338,0.0,0.0,68,0.00,CLR,,0.00,WeatherDisplay:10.37,2013-02-26 17:48:00,
2013-02-26 08:53:00,27.7,18.8,29.38,NNW,338,0.0,0.0,69,0.00,CLR,,0.00,WeatherDisplay:10.37,2013-02-26 17:53:00,
2013-02-26 08:58:00,27.7,18.8,29.38,NNW,338,0.0,0.0,69,0.00,CLR,,0.00,WeatherDisplay:10.37,2013-02-26 17:58:00,
2013-02-26 09:03:00,27.9,19.0,29.38,NNW,338,0.0,0.0,69,0.00,CLR,,0.00,WeatherDisplay:10.37,2013-02-26 18:03:00,
2013-02-26 09:08:00,28.2,19.3,29.38,NNW,338,0.0,0.0,69,0.00,CLR,,0.00,WeatherDisplay:10.37,2013-02-26 18:08:00,
2013-02-26 09:14:00,28.9,20.0,29.38,NNW,338,0.0,0.0,69,0.00,CLR,,0.00,WeatherDisplay:10.37,2013-02-26 18:14:00,
2013-02-26 09:19:00,29.7,20.4,29.38,NNW,338,0.0,0.0,68,0.00,CLR,,0.00,WeatherDisplay:10.37,2013-02-26 18:19:00,
2013-02-26 09:24:00,30.0,20.0,29.38,NNW,338,0.0,0.0,66,0.00,CLR,,0.00,WeatherDisplay:10.37,2013-02-26 18:24:00,
2013-02-26 09:30:00,30.2,20.2,29.38,NNW,338,0.0,0.0,66,0.00,CLR,,0.00,WeatherDisplay:10.37,2013-02-26 18:30:00,
2013-02-26 09:35:00,30.7,17.3,29.38,NNW,338,0.0,0.0,57,0.00,CLR,,0.00,WeatherDisplay:10.37,2013-02-26 18:35:00,
2013-02-26 09:40:00,31.8,17.9,29.38,NNW,338,0.0,0.0,56,0.00,CLR,,0.00,WeatherDisplay:10.37,2013-02-26 18:40:00,
2013-02-26 09:46:00,32.0,18.5,29.38,NNW,338,0.0,0.0,57,0.00,CLR,,0.00,WeatherDisplay:10.37,2013-02-26 18:46:00,
2013-02-26 09:51:00,31.6,16.4,29.38,NNW,338,0.0,0.0,53,0.00,CLR,,0.00,WeatherDisplay:10.37,2013-02-26 18:51:00,
2013-02-26 09:56:00,31.8,17.0,29.38,NNW,338,0.0,0.0,54,0.00,CLR,,0.00,WeatherDisplay:10.37,2013-02-26 18:56:00,
2013-02-26 10:01:00,31.8,16.6,29.38,NNW,338,0.0,0.0,53,0.00,CLR,,0.00,WeatherDisplay:10.37,2013-02-26 19:01:00,
2013-02-26 10:06:00,32.2,17.4,29.38,NNW,338,0.0,0.0,54,0.00,CLR,,0.00,WeatherDisplay:10.37,2013-02-26 19:06:00,
2013-02-26 10:11:00,32.5,16.8,29.38,NNW,338,0.0,0.9,52,0.00,CLR,,0.00,WeatherDisplay:10.37,2013-02-26 19:11:00,
2013-02-26 10:16:00,33.3,18.0,29.38,NNW,338,0.0,0.0,53,0.00,CLR,,0.00,WeatherDisplay:10.37,2013-02-26 19:16:00,
2013-02-26 10:21:00,33.8,18.0,29.38,NNW,338,0.0,0.0,52,0.00,CLR,,0.00,WeatherDisplay:10.37,2013-02-26 19:21:00,
2013-02-26 10:26:00,33.3,16.6,29.38,NNW,338,0.0,0.0,50,0.00,CLR,,0.00,WeatherDisplay:10.37,2013-02-26 19:26:00,
2013-02-26 10:31:00,33.3,17.1,29.38,NNW,338,0.0,0.0,51,0.00,CLR,,0.00,WeatherDisplay:10.37,2013-02-26 19:31:00,
2013-02-26 10:36:00,33.3,17.1,29.38,NNW,338,0.0,0.0,51,0.00,CLR,,0.00,WeatherDisplay:10.37,2013-02-26 19:36:00,
2013-02-26 10:41:00,33.1,16.4,29.38,NNW,338,0.0,0.0,50,0.00,CLR,,0.00,WeatherDisplay:10.37,2013-02-26 19:41:00,
2013-02-26 10:46:00,33.1,16.4,29.38,NNW,338,0.0,0.0,50,0.00,CLR,,0.00,WeatherDisplay:10.37,2013-02-26 19:46:00,
2013-02-26 10:51:00,33.3,16.6,29.35,NNW,338,0.0,0.0,50,0.00,CLR,,0.00,WeatherDisplay:10.37,2013-02-26 19:51:00,
2013-02-26 10:56:00,33.3,16.6,29.35,NNW,338,0.0,0.0,50,0.00,CLR,,0.00,WeatherDisplay:10.37,2013-02-26 19:56:00,
2013-02-26 11:01:00,33.4,17.2,29.35,NNW,338,0.0,0.0,51,0.00,CLR,,0.00,WeatherDisplay:10.37,2013-02-26 20:01:00,
2013-02-26 11:06:00,33.6,17.4,29.38,NNW,338,0.0,0.0,51,0.00,CLR,,0.00,WeatherDisplay:10.37,2013-02-26 20:06:00,
2013-02-26 11:11:00,33.6,16.9,29.38,NNW,338,0.0,0.0,50,0.00,CLR,,0.00,WeatherDisplay:10.37,2013-02-26 20:11:00,
2013-02-26 11:16:00,33.3,16.1,29.38,NNW,338,0.0,0.0,49,0.00,CLR,,0.00,WeatherDisplay:10.37,2013-02-26 20:16:00,
2013-02-26 11:21:00,33.4,16.8,29.35,NNW,338,0.0,0.0,50,0.00,CLR,,0.00,WeatherDisplay:10.37,2013-02-26 20:21:00,
2013-02-26 11:26:00,33.3,15.7,29.35,NNW,338,0.0,0.0,48,0.00,CLR,,0.00,WeatherDisplay:10.37,2013-02-26 20:26:00,
2013-02-26 11:31:00,33.1,15.5,29.35,NNW,338,0.0,0.0,48,0.00,CLR,,0.00,WeatherDisplay:10.37,2013-02-26 20:31:00,
2013-02-26 11:36:00,33.8,17.1,29.35,NNW,338,0.0,0.0,50,0.00,CLR,,0.00,WeatherDisplay:10.37,2013-02-26 20:36:00,
2013-02-26 11:41:00,34.3,17.6,29.35,NNW,338,0.0,0.0,50,0.00,CLR,,0.00,WeatherDisplay:10.37,2013-02-26 20:41:00,
2013-02-26 11:46:00,34.5,16.8,29.35,NNW,338,0.0,0.0,48,0.00,CLR,,0.00,WeatherDisplay:10.37,2013-02-26 20:46:00,
2013-02-26 11:51:00,34.9,17.6,29.35,NNW,338,0.0,0.0,49,0.00,CLR,,0.00,WeatherDisplay:10.37,2013-02-26 20:51:00,
2013-02-26 11:56:00,34.7,17.0,29.35,NNW,338,0.0,0.0,48,0.00,CLR,,0.00,WeatherDisplay:10.37,2013-02-26 20:56:00,
2013-02-26 12:01:00,34.9,17.2,29.35,NNW,338,0.0,0.0,48,0.00,CLR,,0.00,WeatherDisplay:10.37,2013-02-26 21:01:00,
2013-02-26 12:06:00,34.9,16.2,29.35,NNW,338,0.0,0.0,46,0.00,CLR,,0.00,WeatherDisplay:10.37,2013-02-26 21:06:00,
2013-02-26 12:11:00,34.7,16.0,29.35,NNW,338,0.0,0.0,46,0.00,CLR,,0.00,WeatherDisplay:10.37,2013-02-26 21:11:00,
2013-02-26 12:16:00,35.6,16.8,29.35,NNW,338,0.0,0.0,46,0.00,CLR,,0.00,WeatherDisplay:10.37,2013-02-26 21:16:00,
2013-02-26 12:21:00,35.6,16.8,29.35,NNW,338,0.0,0.0,46,0.00,CLR,,0.00,WeatherDisplay:10.37,2013-02-26 21:21:00,
2013-02-26 12:26:00,35.8,17.5,29.35,NNW,338,0.0,0.0,47,0.00,CLR,,0.00,WeatherDisplay:10.37,2013-02-26 21:26:00,
2013-02-26 12:31:00,36.1,17.8,29.35,NNW,338,0.0,0.0,47,0.00,CLR,,0.00,WeatherDisplay:10.37,2013-02-26 21:31:00,
2013-02-26 12:36:00,35.6,16.8,29.35,NNW,338,0.0,0.0,46,0.00,CLR,,0.00,WeatherDisplay:10.37,2013-02-26 21:36:00,
2013-02-26 12:41:00,35.4,16.7,29.35,NNW,338,0.0,0.0,46,0.00,CLR,,0.00,WeatherDisplay:10.37,2013-02-26 21:41:00,
2013-02-26 12:46:00,35.6,16.3,29.35,NNW,338,0.0,0.0,45,0.00,CLR,,0.00,WeatherDisplay:10.37,2013-02-26 21:46:00,
2013-02-26 12:51:00,35.6,16.3,29.35,NNW,338,0.0,0.0,45,0.00,CLR,,0.00,WeatherDisplay:10.37,2013-02-26 21:51:00,
2013-02-26 12:56:00,35.6,15.8,29.35,NNW,338,0.0,0.0,44,0.00,CLR,,0.00,WeatherDisplay:10.37,2013-02-26 21:56:00,
2013-02-26 13:01:00,35.6,15.8,29.35,NNW,338,0.0,0.0,44,0.00,CLR,,0.00,WeatherDisplay:10.37,2013-02-26 22:01:00,
2013-02-26 13:06:00,34.9,15.1,29.35,NNW,338,2.9,2.9,44,0.00,CLR,,0.00,WeatherDisplay:10.37,2013-02-26 22:06:00,
2013-02-26 13:11:00,34.5,15.3,29.35,NNW,338,2.4,3.1,45,0.00,CLR,,0.00,WeatherDisplay:10.37,2013-02-26 22:11:00,
2013-02-26 13:16:00,34.7,16.0,29.35,NNW,338,2.4,3.1,46,0.00,CLR,,0.00,WeatherDisplay:10.37,2013-02-26 22:16:00,
2013-02-26 13:21:00,35.1,17.3,29.35,NNE,22,1.4,2.2,48,0.00,CLR,,0.00,WeatherDisplay:10.37,2013-02-26 22:21:00,
2013-02-26 13:26:00,35.1,17.8,29.35,NNE,22,1.4,2.2,49,0.00,CLR,,0.00,WeatherDisplay:10.37,2013-02-26 22:26:00,
2013-02-26 13:31:00,35.6,17.3,29.35,NNE,22,1.4,2.2,47,0.00,CLR,,0.00,WeatherDisplay:10.37,2013-02-26 22:31:00,
2013-02-26 13:36:00,36.0,17.2,29.35,NNE,22,1.4,2.2,46,0.00,CLR,,0.00,WeatherDisplay:10.37,2013-02-26 22:36:00,
2013-02-26 13:41:00,36.3,17.0,29.35,NNE,22,1.4,2.2,45,0.00,CLR,,0.00,WeatherDisplay:10.37,2013-02-26 22:41:00,
2013-02-26 13:46:00,36.7,16.8,29.35,NNE,22,1.4,2.2,44,0.00,CLR,,0.00,WeatherDisplay:10.37,2013-02-26 22:46:00,
2013-02-26 13:51:00,36.9,17.0,29.35,NNE,22,1.4,2.2,44,0.00,CLR,,0.00,WeatherDisplay:10.37,2013-02-26 22:51:00,
2013-02-26 13:56:00,37.2,16.7,29.35,NNE,22,1.4,2.2,43,0.00,CLR,,0.00,WeatherDisplay:10.37,2013-02-26 22:56:00,
2013-02-26 14:01:00,37.4,16.4,29.35,NNE,22,1.4,2.2,42,0.00,CLR,,0.00,WeatherDisplay:10.37,2013-02-26 23:01:00,
2013-02-26 14:06:00,37.2,16.7,29.32,NNE,22,1.4,2.2,43,0.00,CLR,,0.00,WeatherDisplay:10.37,2013-02-26 23:06:00,
2013-02-26 14:11:00,37.0,17.1,29.32,NNE,22,1.4,2.2,44,0.00,CLR,,0.00,WeatherDisplay:10.37,2013-02-26 23:11:00,
2013-02-26 14:16:00,37.0,16.6,29.32,NNE,22,1.4,2.2,43,0.00,CLR,,0.00,WeatherDisplay:10.37,2013-02-26 23:16:00,
2013-02-26 14:21:00,37.0,16.6,29.32,NNE,22,1.4,2.2,43,0.00,CLR,,0.00,WeatherDisplay:10.37,2013-02-26 23:21:00,
2013-02-26 14:26:00,37.0,16.6,29.32,NNE,22,1.4,2.2,43,0.00,CLR,,0.00,WeatherDisplay:10.37,2013-02-26 23:26:00,
2013-02-26 14:31:00,37.4,16.9,29.32,NNE,22,1.4,2.2,43,0.00,CLR,,0.00,WeatherDisplay:10.37,2013-02-26 23:31:00,
2013-02-26 14:36:00,37.6,16.5,29.32,NNE,22,1.4,2.2,42,0.00,CLR,,0.00,WeatherDisplay:10.37,2013-02-26 23:36:00,
2013-02-26 14:41:00,37.2,16.7,29.32,NNE,22,1.4,2.2,43,0.00,CLR,,0.00,WeatherDisplay:10.37,2013-02-26 23:41:00,
2013-02-26 14:46:00,37.6,16.5,29.32,NNE,22,1.4,2.2,42,0.00,CLR,,0.00,WeatherDisplay:10.37,2013-02-26 23:46:00,
2013-02-26 14:51:00,37.4,16.4,29.32,NNE,22,1.4,2.2,42,0.00,CLR,,0.00,WeatherDisplay:10.37,2013-02-26 23:51:00,
2013-02-26 14:56:00,37.4,15.8,29.32,NNE,22,1.4,2.2,41,0.00,CLR,,0.00,WeatherDisplay:10.37,2013-02-26 23:56:00,
2013-02-26 15:01:00,37.2,16.2,29.32,NNE,22,1.4,2.2,42,0.00,CLR,,0.00,WeatherDisplay:10.37,2013-02-27 00:01:00,
2013-02-26 15:06:00,37.2,16.2,29.32,NNE,22,1.4,2.2,42,0.00,CLR,,0.00,WeatherDisplay:10.37,2013-02-27 00:06:00,
2013-02-26 15:11:00,37.4,16.4,29.32,NNE,22,1.4,2.2,42,0.00,CLR,,0.00,WeatherDisplay:10.37,2013-02-27 00:11:00,
2013-02-26 15:16:00,37.6,16.5,29.32,NNE,22,1.4,2.2,42,0.00,CLR,,0.00,WeatherDisplay:10.37,2013-02-27 00:16:00,
2013-02-26 15:21:00,37.6,16.5,29.32,NNE,22,1.4,2.2,42,0.00,CLR,,0.00,WeatherDisplay:10.37,2013-02-27 00:21:00,
2013-02-26 15:26:00,37.0,16.0,29.32,NNE,22,1.4,2.2,42,0.00,CLR,,0.00,WeatherDisplay:10.37,2013-02-27 00:26:00,
2013-02-26 15:31:00,37.2,16.7,29.32,NNE,22,1.4,2.2,43,0.00,CLR,,0.00,WeatherDisplay:10.37,2013-02-27 00:31:00,
2013-02-26 15:36:00,36.5,16.1,29.32,NNE,22,1.4,2.2,43,0.00,CLR,,0.00,WeatherDisplay:10.37,2013-02-27 00:36:00,
2013-02-26 15:41:00,36.1,16.3,29.32,NNE,22,1.4,2.2,44,0.00,CLR,,0.00,WeatherDisplay:10.37,2013-02-27 00:41:00,
2013-02-26 15:46:00,35.8,16.5,29.32,NNE,22,1.4,2.2,45,0.00,CLR,,0.00,WeatherDisplay:10.37,2013-02-27 00:46:00,
2013-02-26 15:51:00,35.8,17.0,29.29,NNE,22,1.4,2.2,46,0.00,CLR,,0.00,WeatherDisplay:10.37,2013-02-27 00:51:00,
2013-02-26 15:56:00,35.8,17.5,29.29,NNE,22,1.4,2.2,47,0.00,CLR,,0.00,WeatherDisplay:10.37,2013-02-27 00:56:00,
2013-02-26 16:01:00,35.6,17.3,29.29,NNE,22,1.4,2.2,47,0.00,CLR,,0.00,WeatherDisplay:10.37,2013-02-27 01:01:00,
2013-02-26 16:06:00,35.6,18.3,29.29,NNE,22,1.4,2.2,49,0.00,CLR,,0.00,WeatherDisplay:10.37,2013-02-27 01:06:00,
2013-02-26 16:11:00,35.4,18.1,29.29,NNE,22,1.4,2.2,49,0.00,CLR,,0.00,WeatherDisplay:10.37,2013-02-27 01:11:00,
2013-02-26 16:16:00,35.6,18.3,29.29,NNE,22,1.4,2.2,49,0.00,CLR,,0.00,WeatherDisplay:10.37,2013-02-27 01:16:00,
2013-02-26 16:21:00,35.2,18.4,29.29,NNE,22,1.4,2.2,50,0.00,CLR,,0.00,WeatherDisplay:10.37,2013-02-27 01:21:00,
2013-02-26 16:26:00,35.4,18.6,29.29,NNE,22,1.4,2.2,50,0.00,CLR,,0.00,WeatherDisplay:10.37,2013-02-27 01:26:00,
2013-02-26 16:31:00,35.4,18.1,29.29,NNE,22,1.4,2.2,49,0.00,CLR,,0.00,WeatherDisplay:10.37,2013-02-27 01:31:00,
2013-02-26 16:37:00,35.4,18.6,29.29,NNE,22,1.4,2.2,50,0.00,CLR,,0.00,WeatherDisplay:10.37,2013-02-27 01:37:00,
2013-02-26 16:42:00,35.4,18.6,29.29,NNE,22,1.4,2.2,50,0.00,CLR,,0.00,WeatherDisplay:10.37,2013-02-27 01:42:00,
2013-02-26 16:47:00,35.4,17.7,29.29,NNE,22,1.4,2.2,48,0.00,CLR,,0.00,WeatherDisplay:10.37,2013-02-27 01:47:00,
2013-02-26 16:52:00,35.4,17.2,29.29,NNE,22,1.4,2.2,47,0.00,CLR,,0.00,WeatherDisplay:10.37,2013-02-27 01:52:00,
2013-02-26 16:57:00,35.4,17.2,29.29,NNE,22,1.4,2.2,47,0.00,CLR,,0.00,WeatherDisplay:10.37,2013-02-27 01:57:00,
2013-02-26 17:02:00,35.4,17.2,29.29,NNE,22,1.4,2.2,47,0.00,CLR,,0.00,WeatherDisplay:10.37,2013-02-27 02:02:00,
2013-02-26 17:07:00,35.4,17.2,29.26,NNW,338,2.4,2.4,47,0.00,CLR,,0.00,WeatherDisplay:10.37,2013-02-27 02:07:00,
2013-02-26 17:12:00,35.2,17.0,29.26,NNW,338,2.4,2.4,47,0.00,CLR,,0.00,WeatherDisplay:10.37,2013-02-27 02:12:00,
2013-02-26 17:17:00,34.5,16.3,29.26,NNW,338,2.4,2.4,47,0.00,CLR,,0.00,WeatherDisplay:10.37,2013-02-27 02:17:00,
2013-02-26 17:22:00,34.5,16.8,29.29,NNW,338,2.4,2.4,48,0.00,CLR,,0.00,WeatherDisplay:10.37,2013-02-27 02:22:00,
2013-02-26 17:27:00,34.5,15.8,29.29,NNW,338,2.4,2.4,46,0.00,CLR,,0.00,WeatherDisplay:10.37,2013-02-27 02:27:00,
2013-02-26 17:32:00,34.5,15.8,29.29,NE,45,2.9,3.3,46,0.00,CLR,,0.00,WeatherDisplay:10.37,2013-02-27 02:32:00,
2013-02-26 17:37:00,34.9,16.2,29.29,ENE,68,2.4,3.1,46,0.00,CLR,,0.00,WeatherDisplay:10.37,2013-02-27 02:37:00,
2013-02-26 17:42:00,34.9,16.2,29.29,ENE,68,2.4,3.1,46,0.00,CLR,,0.00,WeatherDisplay:10.37,2013-02-27 02:42:00,
2013-02-26 17:48:00,34.7,16.0,29.29,NNE,22,1.6,2.0,46,0.00,CLR,,0.00,WeatherDisplay:10.37,2013-02-27 02:48:00,
2013-02-26 17:54:00,34.3,15.7,29.29,NNE,22,1.6,2.0,46,0.00,CLR,,0.00,WeatherDisplay:10.37,2013-02-27 02:54:00,
2013-02-26 17:59:00,34.2,14.5,29.29,NNE,22,1.6,2.0,44,0.00,CLR,,0.00,WeatherDisplay:10.37,2013-02-27 02:59:00,
2013-02-26 18:04:00,34.2,14.5,29.29,NNE,22,1.6,2.0,44,0.00,CLR,,0.00,WeatherDisplay:10.37,2013-02-27 03:04:00,
2013-02-26 18:09:00,34.0,14.3,29.29,North,0,4.6,4.6,44,0.00,CLR,,0.00,WeatherDisplay:10.37,2013-02-27 03:09:00,
2013-02-26 18:14:00,33.8,14.7,29.29,NNW,338,3.5,3.5,45,0.00,CLR,,0.00,WeatherDisplay:10.37,2013-02-27 03:14:00,
2013-02-26 18:19:00,33.3,15.2,29.29,North,0,3.8,3.8,47,0.00,CLR,,0.00,WeatherDisplay:10.37,2013-02-27 03:19:00,
2013-02-26 18:24:00,33.3,15.7,29.29,NNW,338,4.6,4.6,48,0.00,CLR,,0.00,WeatherDisplay:10.37,2013-02-27 03:24:00,
2013-02-26 18:29:00,32.9,16.3,29.29,NNE,22,3.5,3.5,50,0.00,CLR,,0.00,WeatherDisplay:10.37,2013-02-27 03:29:00,
2013-02-26 18:34:00,32.9,16.7,29.26,NNW,338,4.6,4.9,51,0.00,CLR,,0.00,WeatherDisplay:10.37,2013-02-27 03:34:00,
2013-02-26 18:39:00,32.5,17.3,29.26,NNW,338,3.6,3.6,53,0.00,CLR,,0.00,WeatherDisplay:10.37,2013-02-27 03:39:00,
2013-02-26 18:44:00,32.4,17.1,29.26,North,0,3.5,4.0,53,0.00,CLR,,0.00,WeatherDisplay:10.37,2013-02-27 03:44:00,
2013-02-26 18:49:00,32.0,17.2,29.26,North,0,2.6,2.6,54,0.00,CLR,,0.00,WeatherDisplay:10.37,2013-02-27 03:49:00,
2013-02-26 18:54:00,31.8,17.0,29.26,NNW,338,2.3,2.3,54,0.00,CLR,,0.00,WeatherDisplay:10.37,2013-02-27 03:54:00,
2013-02-26 18:59:00,31.6,17.3,29.26,NE,45,2.6,2.6,55,0.00,CLR,,0.00,WeatherDisplay:10.37,2013-02-27 03:59:00,
2013-02-26 19:04:00,31.5,17.1,29.29,North,0,2.6,2.6,55,0.00,CLR,,0.00,WeatherDisplay:10.37,2013-02-27 04:04:00,
2013-02-26 19:09:00,31.5,16.7,29.29,North,0,2.3,2.3,54,0.00,CLR,,0.00,WeatherDisplay:10.37,2013-02-27 04:09:00,
2013-02-26 19:14:00,31.6,16.9,29.29,North,0,4.6,4.6,54,0.00,CLR,,0.00,WeatherDisplay:10.37,2013-02-27 04:14:00,
2013-02-26 19:19:00,31.5,17.1,29.26,North,0,4.6,4.6,55,0.00,CLR,,0.00,WeatherDisplay:10.37,2013-02-27 04:19:00,
2013-02-26 19:24:00,31.3,17.8,29.26,NNE,22,4.6,4.6,57,0.00,CLR,,0.00,WeatherDisplay:10.37,2013-02-27 04:24:00,
2013-02-26 19:29:00,31.1,16.8,29.26,NNE,22,2.3,2.3,55,0.00,CLR,,0.00,WeatherDisplay:10.37,2013-02-27 04:29:00,
2013-02-26 19:34:00,31.1,16.8,29.26,NNW,338,0.0,1.4,55,0.00,CLR,,0.00,WeatherDisplay:10.37,2013-02-27 04:34:00,
2013-02-26 19:39:00,31.1,16.8,29.26,North,0,2.6,2.6,55,0.00,CLR,,0.00,WeatherDisplay:10.37,2013-02-27 04:39:00,
2013-02-26 19:44:00,31.1,16.8,29.26,NNW,338,3.5,3.5,55,0.00,CLR,,0.00,WeatherDisplay:10.37,2013-02-27 04:44:00,
2013-02-26 19:49:00,31.1,16.8,29.26,North,0,2.6,3.6,55,0.00,CLR,,0.00,WeatherDisplay:10.37,2013-02-27 04:49:00,
2013-02-26 19:54:00,30.7,16.9,29.26,NNW,338,3.5,3.5,56,0.00,CLR,,0.00,WeatherDisplay:10.37,2013-02-27 04:54:00,
2013-02-26 19:59:00,30.6,17.5,29.26,NNW,338,2.6,2.6,58,0.00,CLR,,0.00,WeatherDisplay:10.37,2013-02-27 04:59:00,
2013-02-26 20:00:00,30.4,17.4,29.26,North,0,2.3,2.4,58,0.00,CLR,,0.00,WeatherDisplay:10.37,2013-02-27 05:00:00,
2013-02-26 20:05:00,30.2,18.0,29.26,North,0,1.1,2.4,60,0.00,CLR,,0.00,WeatherDisplay:10.37,2013-02-27 05:05:00,
2013-02-26 20:10:00,30.2,18.7,29.26,North,0,1.1,2.4,62,0.00,CLR,,0.00,WeatherDisplay:10.37,2013-02-27 05:10:00,
2013-02-26 20:12:00,30.2,19.1,29.26,North,0,1.1,2.4,63,0.00,CLR,,0.00,WeatherDisplay:10.37,2013-02-27 05:12:00,
2013-02-26 20:14:00,30.2,19.1,29.26,North,0,1.1,2.4,63,0.00,CLR,,0.00,WeatherDisplay:10.37,2013-02-27 05:14:00,
2013-02-26 20:19:00,30.2,18.7,29.26,North,0,4.6,4.6,62,0.00,CLR,,0.00,WeatherDisplay:10.37,2013-02-27 05:19:00,
2013-02-26 20:24:00,30.2,18.4,29.26,North,0,4.6,4.6,61,0.00,CLR,,0.00,WeatherDisplay:10.37,2013-02-27 05:24:00,
2013-02-26 20:29:00,30.2,17.6,29.26,North,0,4.6,4.6,59,0.00,CLR,,0.00,WeatherDisplay:10.37,2013-02-27 05:29:00,
2013-02-26 20:30:00,30.2,17.6,29.26,North,0,4.6,4.6,59,0.00,CLR,,0.00,WeatherDisplay:10.37,2013-02-27 05:30:00,
2013-02-26 20:35:00,30.4,18.1,29.24,North,0,4.6,4.6,60,0.00,CLR,,0.00,WeatherDisplay:10.37,2013-02-27 05:35:00,
2013-02-26 20:40:00,30.2,18.7,29.24,North,0,4.6,4.6,62,0.00,CLR,,0.00,WeatherDisplay:10.37,2013-02-27 05:40:00,
2013-02-26 20:45:00,30.2,18.4,29.24,North,0,4.6,4.6,61,0.00,CLR,,0.00,WeatherDisplay:10.37,2013-02-27 05:45:00,
2013-02-26 20:50:00,30.0,17.8,29.24,North,0,4.6,4.6,60,0.00,CLR,,0.00,WeatherDisplay:10.37,2013-02-27 05:50:00,
2013-02-26 20:55:00,29.8,16.4,29.24,North,0,4.6,4.6,57,0.00,CLR,,0.00,WeatherDisplay:10.37,2013-02-27 05:55:00,
2013-02-26 21:00:00,30.0,16.6,29.24,North,0,4.6,4.6,57,0.00,CLR,,0.00,WeatherDisplay:10.37,2013-02-27 06:00:00,
2013-02-26 21:05:00,30.2,16.0,29.24,North,0,4.6,4.6,55,0.00,CLR,,0.00,WeatherDisplay:10.37,2013-02-27 06:05:00,
2013-02-26 21:10:00,30.2,16.8,29.24,North,0,4.6,4.6,57,0.00,CLR,,0.00,WeatherDisplay:10.37,2013-02-27 06:10:00,
2013-02-26 21:16:00,30.0,17.4,29.24,NNW,338,4.6,4.6,59,0.00,CLR,,0.00,WeatherDisplay:10.37,2013-02-27 06:16:00,
2013-02-26 21:21:00,29.8,18.4,29.24,NNW,338,3.5,3.8,62,0.00,CLR,,0.00,WeatherDisplay:10.37,2013-02-27 06:21:00,
2013-02-26 21:27:00,29.5,16.5,29.24,NNW,338,3.5,3.8,58,0.00,CLR,,0.00,WeatherDisplay:10.37,2013-02-27 06:27:00,
2013-02-26 21:32:00,29.5,15.7,29.24,NNW,338,3.5,3.8,56,0.00,CLR,,0.00,WeatherDisplay:10.37,2013-02-27 06:32:00,
2013-02-26 21:37:00,29.1,13.7,29.24,NNW,338,3.5,3.8,52,0.00,CLR,,0.00,WeatherDisplay:10.37,2013-02-27 06:37:00,
2013-02-26 21:42:00,29.5,13.6,29.24,NNW,338,3.5,3.8,51,0.00,CLR,,0.00,WeatherDisplay:10.37,2013-02-27 06:42:00,
2013-02-26 21:47:00,30.0,13.1,29.24,NNW,338,3.5,3.8,49,0.00,CLR,,0.00,WeatherDisplay:10.37,2013-02-27 06:47:00,
2013-02-26 21:52:00,30.4,13.0,29.24,NNW,338,3.5,3.8,48,0.00,CLR,,0.00,WeatherDisplay:10.37,2013-02-27 06:52:00,
2013-02-26 21:57:00,30.6,13.2,29.24,NNW,338,3.5,3.8,48,0.00,CLR,,0.00,WeatherDisplay:10.37,2013-02-27 06:57:00,
2013-02-26 22:02:00,30.2,13.3,29.24,NNW,338,3.5,3.8,49,0.00,CLR,,0.00,WeatherDisplay:10.37,2013-02-27 07:02:00,
2013-02-26 22:07:00,30.4,13.0,29.24,NNW,338,3.5,3.8,48,0.00,CLR,,0.00,WeatherDisplay:10.37,2013-02-27 07:07:00,
2013-02-26 22:12:00,30.4,13.5,29.24,NNW,338,3.5,3.8,49,0.00,CLR,,0.00,WeatherDisplay:10.37,2013-02-27 07:12:00,
2013-02-26 22:17:00,30.6,13.2,29.24,NNW,338,3.5,3.8,48,0.00,CLR,,0.00,WeatherDisplay:10.37,2013-02-27 07:17:00,
2013-02-26 22:22:00,30.7,12.9,29.24,NNW,338,3.5,3.8,47,0.00,CLR,,0.00,WeatherDisplay:10.37,2013-02-27 07:22:00,
2013-02-26 22:27:00,30.7,12.4,29.24,NNW,338,3.5,3.8,46,0.00,CLR,,0.00,WeatherDisplay:10.37,2013-02-27 07:27:00,
2013-02-26 22:32:00,30.9,12.5,29.24,NNW,338,3.5,3.8,46,0.00,CLR,,0.00,WeatherDisplay:10.37,2013-02-27 07:32:00,
2013-02-26 22:37:00,30.2,12.4,29.24,NNW,338,3.5,3.8,47,0.00,CLR,,0.00,WeatherDisplay:10.37,2013-02-27 07:37:00,
2013-02-26 22:42:00,30.2,12.4,29.24,NNW,338,3.5,3.8,47,0.00,CLR,,0.00,WeatherDisplay:10.37,2013-02-27 07:42:00,
2013-02-26 22:47:00,29.7,12.8,29.24,NNW,338,3.5,3.8,49,0.00,CLR,,0.00,WeatherDisplay:10.37,2013-02-27 07:47:00,
2013-02-26 22:52:00,29.3,12.5,29.24,NNW,338,3.5,3.8,49,0.00,CLR,,0.00,WeatherDisplay:10.37,2013-02-27 07:52:00,
2013-02-26 22:57:00,29.1,12.8,29.24,NNW,338,3.5,3.8,50,0.00,CLR,,0.00,WeatherDisplay:10.37,2013-02-27 07:57:00,
2013-02-26 23:02:00,29.7,13.3,29.24,NNW,338,3.5,3.8,50,0.00,CLR,,0.00,WeatherDisplay:10.37,2013-02-27 08:02:00,
2013-02-26 23:07:00,29.7,13.3,29.24,NNW,338,3.5,3.8,50,0.00,CLR,,0.00,WeatherDisplay:10.37,2013-02-27 08:07:00,
2013-02-26 23:12:00,29.5,13.1,29.24,NNW,338,3.5,3.8,50,0.00,CLR,,0.00,WeatherDisplay:10.37,2013-02-27 08:12:00,
2013-02-26 23:17:00,29.5,13.6,29.24,NNW,338,3.5,3.8,51,0.00,CLR,,0.00,WeatherDisplay:10.37,2013-02-27 08:17:00,
2013-02-26 23:22:00,29.3,13.4,29.24,NNW,338,3.5,3.8,51,0.00,CLR,,0.00,WeatherDisplay:10.37,2013-02-27 08:22:00,
2013-02-26 23:27:00,29.5,13.6,29.24,NNW,338,3.5,3.8,51,0.00,CLR,,0.00,WeatherDisplay:10.37,2013-02-27 08:27:00,
2013-02-26 23:32:00,29.7,13.7,29.24,NNW,338,3.5,3.8,51,0.00,CLR,,0.00,WeatherDisplay:10.37,2013-02-27 08:32:00,
2013-02-26 23:37:00,29.7,13.7,29.24,NNW,338,3.5,3.8,51,0.00,CLR,,0.00,WeatherDisplay:10.37,2013-02-27 08:37:00,
2013-02-26 23:42:00,29.7,13.7,29.24,NNW,338,3.5,3.8,51,0.00,CLR,,0.00,WeatherDisplay:10.37,2013-02-27 08:42:00,
2013-02-26 23:47:00,29.7,13.7,29.24,NNW,338,3.5,3.8,51,0.00,CLR,,0.00,WeatherDisplay:10.37,2013-02-27 08:47:00,
2013-02-26 23:52:00,29.5,13.6,29.24,NNW,338,3.5,3.5,51,0.00,CLR,,0.00,WeatherDisplay:10.37,2013-02-27 08:52:00,
2013-02-26 23:57:00,29.3,13.4,29.24,NNW,338,3.5,3.5,51,0.00,CLR,,0.00,WeatherDisplay:10.37,2013-02-27 08:57:00,